Regional Weather Roundup
Issued by NWS

Home | Current Version | Previous Version | Graphics & Text | Print | Product List | Glossary On
Versions: 1 2 3 4 5 6 7 8 9 10 11 12 13 14 15 16 17 18 19 20 21 22 23 24 25 26 27 28 29 30 31 32 33 34 35 36 37 38 39 40 41 42 43 44 45 46 47 48 49 50
000
ASUS44 KMEG 241910
RWRTN
TENNESSEE HOURLY STATE WEATHER ROUNDUP
NATIONAL WEATHER SERVICE MEMPHIS TN
100 PM CST MON NOV 24 2014

TNZ002-004-019-021-049-052-054-088>092-242000-
WEST TENNESSEE

CITY           SKY/WX    TMP DP  RH WIND       PRES   REMARKS
MEMPHIS INTL   MOSUNNY   56  33  42 W15G22    29.88F
NWS MEMPHIS      N/A     54 N/A N/A MISG        N/A
JACKSON        SUNNY     56  34  43 W16G23    29.85R
DYERSBURG      SUNNY     52  27  37 W18G24    29.86R
UNION CITY     MOSUNNY   48  34  57 SW16      29.81S
PARIS          MOSUNNY   50  34  53 SW23      29.81R
HUNTINGDON     MOSUNNY   52  33  48 W14       29.83R
LEXINGTON      SUNNY     55  32  41 W18       29.82S
SAVANNAH       SUNNY     55  36  47 W9        29.85S
$$

TNZ008-025-027-028-033-062-065-066-242000-
NORTH MIDDLE TENNESSEE

CITY           SKY/WX    TMP DP  RH WIND       PRES   REMARKS
NASHVILLE      MOSUNNY   59  38  45 W10G22    29.79R
CLARKSVILLE    SUNNY     54  34  46 W17G24    29.78R
SMYRNA         MOSUNNY   59  41  51 W18       29.81R
COOKEVILLE     MOSUNNY   63  46  55 W10       29.76R
CROSSVILLE     PTSUNNY   63  42  46 W12G24    29.76R
$$

TNZ061-075-076-078-094-096-097-242000-
SOUTH MIDDLE TENNESSEE

CITY           SKY/WX    TMP DP  RH WIND       PRES   REMARKS
FAYETTEVILLE   SUNNY     59  43  55 MISG      29.81R
TULLAHOMA      MOSUNNY   61  43  51 W16       29.80R
WINCHESTER     MOSUNNY   63  46  55 W10       29.80R
MCMINNVILLE    SUNNY     61  46  59 W14       29.78R
COLUMBIA       SUNNY     59  37  44 W17       29.80R
SHELBYVILLE    MOSUNNY   63  45  51 W21G37    29.81R
$$

TNZ017-018-042-046-047-242000-
NORTHEAST TENNESSEE

CITY           SKY/WX    TMP DP  RH WIND       PRES   REMARKS
TRI CITIES     MOSUNNY   72  44  36 SW23G32   29.71R
ELIZABETHTON   CLEAR     72  37  28 W22       29.70R
$$

TNZ012-013-036-069-073-074-242000-
CENTRAL EAST TENNESSEE

CITY           SKY/WX    TMP DP  RH WIND       PRES   REMARKS
KNOXVILLE      MOSUNNY   68  50  52 SW24G38   29.71S
OAK RIDGE      MOSUNNY   70  47  43 SW16G25   29.72R
GATLINBURG     CLEAR     73  43  33 SW25      29.69R
MORRISTOWN     PTCLDY    70  48  46 SW17      29.72R
$$

TNZ083-085-099-242000-
SOUTHEAST TENNESSEE

CITY           SKY/WX    TMP DP  RH WIND       PRES   REMARKS
CHATTANOOGA    MOSUNNY   70  46  42 SW21G28   29.76R
$$

SKY/WX REPORTED AS FAIR MEANS FEW OR NO CLOUDS BELOW
12 THOUSAND FEET.



USA.gov is the U.S. government's official web portal to all federal, state and local government web resources and services.